Regional Weather Roundup
Issued by NWS

Home | Current Version | Previous Version | Graphics & Text | Print | Product List | Glossary On
Versions: 1 2 3 4 5 6 7 8 9 10 11 12 13 14 15 16 17 18 19 20 21 22 23 24 25 26 27 28 29 30 31 32 33 34 35 36 37 38 39 40 41 42 43 44 45 46 47 48 49 50
000
ASUS43 KIND 232209
RWRIN

WEATHER ROUNDUP FOR INDIANA
NATIONAL WEATHER SERVICE INDIANAPOLIS IN
500 PM EST SUN NOV 23 2014

NOTE: "FAIR" INDICATES FEW OR NO CLOUDS BELOW 12,000 FEET WITH NO
SIGNIFICANT WEATHER AND/OR OBSTRUCTIONS TO VISIBILITY.

* - STATION DOES NOT REPORT WEATHER SUCH AS PRECIPITATION OR FOG.

+ - STATION NOT QUALITY CONTROLLED BY THE NATIONAL WEATHER SERVICE.
    USE DATA WITH CAUTION...ESPECIALLY DEWPOINT AND RELATIVE
    HUMIDITY OBSERVATIONS.

INZ001>003-010>013-019-020-232300-
NORTHWEST INDIANA

CITY           SKY/WX    TMP DP  RH WIND       PRES   REMARKS
GARY /AIRPORT/ LGT RAIN  52  50  93 SE14      29.49F
KNOX *+        CLOUDY    51  49  92 SE12      29.50F
LA PORTE +     RAIN      52  52 100 SE7       29.52F
MICHIGAN CITY+ RAIN      50  50 100 SE8       29.51F
MONTICELLO +   RAIN      50  50  99 SE6       29.49F
RENSSELAER +   LGT RAIN  50  50 100 SE12      29.47F
VALPARAISO     RAIN      50  50 100 SE10      29.50F FOG

$$

LMZ046-743>745-232300-
SOUTHERN LAKE MICHIGAN

STATION/POSITION TIME  TEMP WIND        PRES
                       AIR  DIR/SP/G
                 (UTC) (F)  (DEG/KT/KT) (MB)
MICHIGAN CITY    2200   51  120/ 12/ 16   N/A

$$

INZ004-005-014>016-021>024-232300-
NORTH CENTRAL INDIANA

CITY           SKY/WX    TMP DP  RH WIND       PRES   REMARKS
GOSHEN         RAIN      51  50  96 SE16      29.53F FOG
LOGANSPORT +   HVY RAIN  50  50 100 SE10      29.51F
PERU/GRISSOM   LGT RAIN  52  52 100 SE13      29.49F FOG
ROCHESTER +    RAIN      52  52 100 SE8       29.52F
SOUTH BEND     RAIN      51  50  96 SE10      29.54F FOG
WARSAW +       RAIN      50  50 100 SE12G18   29.54F

$$

INZ006>009-017-018-025>027-232300-
NORTHEAST INDIANA

CITY           SKY/WX    TMP DP  RH WIND       PRES   REMARKS
ANGOLA *+      CLOUDY    50  39  66 SE8       29.58F
AUBURN +       RAIN      52  48  87 E5        29.59F
FORT WAYNE     RAIN      52  50  93 SE9       29.57F FOG
HUNTINGTON +   RAIN      51  50  98 SE7       29.54F

$$

INZ028-029-035-036-043>045-051>053-232300-
WEST CENTRAL INDIANA

CITY           SKY/WX    TMP DP  RH WIND       PRES   REMARKS
CRAWFORDSVL +  RAIN      48  48 100 E7        29.45
GREENCASTLE +  LGT RAIN  52  50  93 SE8       29.46F
LAFAYETTE      LGT RAIN  50  50 100 E7        29.46F FOG
TERRE HAUTE    LGT RAIN  53  51  93 SE7       29.44F FOG

$$

INZ030>032-037>040-046>048-054>057-064-065-232300-
CENTRAL INDIANA

CITY           SKY/WX    TMP DP  RH WIND       PRES   REMARKS
CP ATTERBURY + LGT RAIN  52  50  93 SE9       29.49F
FRANKFORT +    LGT RAIN N/A N/A N/A E13       29.49F
INDIANAPOLIS   LGT RAIN  51  50  96 SE20      29.46F FOG
-EAGLE CREEK   LGT RAIN  52  52 100 SE10G20   29.48F
KOKOMO *+      CLOUDY    52  48  87 SE17      29.49F
MARION +       RAIN      51  49  95 SE13      29.52F
MT COMFORT *+  CLOUDY    52 N/A N/A SE14      29.49F
SHELBYVILLE    RAIN      54  51  90 SE16      29.49F FOG
ZIONSVILLE +   RAIN      52  49  89 SE13      29.49F

$$

INZ033-034-041-042-049-050-058-059-232300-
EAST CENTRAL INDIANA

CITY           SKY/WX    TMP DP  RH WIND       PRES   REMARKS
MUNCIE         LGT RAIN  52  50  93 SE15      29.52F FOG

$$

INZ060-061-067>069-081>083-085>088-232300-
SOUTHWEST INDIANA

CITY           SKY/WX    TMP DP  RH WIND       PRES   REMARKS
EVANSVILLE     RAIN      57  54  89 SE6G17    29.40F FOG
HUNTINGBURG *+ CLOUDY    55  52  88 SE13      29.44F
WASHINGTON +   RAIN      54  54 100 SE12      29.43F

$$

INZ062-063-066-070>080-084-089>092-232300-
SOUTH CENTRAL AND SOUTHEAST INDIANA

CITY           SKY/WX    TMP DP  RH WIND       PRES   REMARKS
BLOOMINGTON    HVY RAIN  53  52  96 SE14      29.46F FOG

$$



USA.gov is the U.S. government's official web portal to all federal, state and local government web resources and services.